Regional Weather Roundup
Issued by NWS

Home | Current Version | Previous Version | Graphics & Text | Print | Product List | Glossary On
Versions: 1 2 3 4 5 6 7 8 9 10 11 12 13 14 15 16 17 18 19 20 21 22 23 24 25 26 27 28 29 30 31 32 33 34 35 36 37 38 39 40 41 42 43 44 45 46 47 48 49 50
000
ASUS43 KMKX 221111
RWRWI

WISCONSIN REGIONAL WEATHER ROUNDUP
NATIONAL WEATHER SERVICE MILWAUKEE/SULLIVAN WI
600 AM CDT FRI AUG 22 2014

NOTE: "FAIR" INDICATES FEW OR NO CLOUDS BELOW 12,000 FEET WITH NO
SIGNIFICANT WEATHER AND/OR OBSTRUCTIONS TO VISIBILITY.

WIZ001-002-006>008-014>016-023>028-221200-
NORTHWEST WISCONSIN

CITY           SKY/WX    TMP DP  RH WIND       PRES   REMARKS
SUPERIOR ARPT  DRIZZLE   60  60  99 NE12      29.94R
ASHLAND        CLOUDY    66  65  96 NE3       29.93R FOG
HAYWARD        FOG       68  68 100 NE3       29.92R VSB 1
SIREN          FOG       64  64  97 CALM      29.92R VSB 3/4
RICE LAKE      FOG       70  68  95 CALM      29.91R VSB 1
LADYSMITH      CLOUDY    69  68  96 CALM      29.93R FOG
EAU CLAIRE     CLOUDY    71  71 100 CALM      29.88R
MENOMONIE      CLOUDY    72  71  98 CALM      29.89R FOG
NEW RICHMOND   FOG       69  69 100 NW7       29.90S VSB 3/4
OSCEOLA        CLOUDY    66  66 100 NW3       29.93S FOG
$$

WIZ003>005-009-010-017-018-221200-
NORTH CENTRAL WISCONSIN

CITY           SKY/WX    TMP DP  RH WIND       PRES   REMARKS
WOODRUFF       CLOUDY    64  62  92 SE6       29.96R FOG
RHINELANDER    FOG       63  63 100 E5        29.97R VSB 1/2
EAGLE RIVER    CLOUDY    63  63 100 CALM      29.97R FOG
LAND O LAKES   CLOUDY    64  63  99 E3        29.98R FOG
PHILLIPS       CLOUDY    64  64 100 E6        29.93R FOG
TOMAHAWK       FOG       64  63  96 CALM      29.95R VSB 3/4
MEDFORD        FOG       66  66 100 SE3       29.93S VSB 1/2
MERRILL        FOG       65  65 100 CALM      29.94R VSB 1/2
$$

WIZ029-030-035-036-043>047-221200-
CENTRAL WISCONSIN

CITY           SKY/WX    TMP DP  RH WIND       PRES   REMARKS
WAUSAU         FOG       65  65 100 E5        29.93R VSB 3/4
MOSINEE        FOG       66  66 100 E3        29.94R VSB 3/8
MARSHFIELD     FOG       70  69  97 E5        29.92S VSB 1/4
STEVENS POINT  FOG       65  65 100 E3        29.94R VSB 1/4
WAUPACA        FOG       70  69  95 CALM      29.94R VSB 1/4
WAUTOMA        FOG       71  71 100 CALM      29.92S VSB<1/4
WISC RAPIDS    CLOUDY    71  69  93 CALM      29.93S FOG
CAMP DOUGLAS   CLOUDY    68  68 100 SE5       29.91R
$$

WIZ011>013-019>022-031-037>040-048>050-221200-
NORTHEAST WISCONSIN

CITY           SKY/WX    TMP DP  RH WIND       PRES   REMARKS
ANTIGO         FOG       63  63 100 CALM      29.97R VSB 1/2
STURGEON BAY   CLOUDY    66  63  88 SE3       29.96R VSB 1
GREEN BAY      CLOUDY    66  65  96 CALM      29.95R FOG
MANITOWOC      FOG       66  66 100 CALM      29.96R VSB 1/2
APPLETON       NOT AVBL
CLINTONVILLE   FOG       64  64 100 E3        29.94R VSB 1/4
OSHKOSH        CLOUDY    70  69  97 S7        29.93R FOG
$$

WIZ032>034-041-042-053>061-221200-
SOUTHWEST WISCONSIN

CITY           SKY/WX    TMP DP  RH WIND       PRES   REMARKS
LA CROSSE      CLOUDY    74  71  91 SE3       29.87S
SPARTA         MOCLDY    66  64  96 CALM      29.90S
VIROQUA        CLOUDY    68  68 100 SE5       29.91S VSB 1/4
BOSCOBEL       FOG       70  68  93 CALM      29.89R VSB 1/4
PRAIRIE DU CHI CLOUDY    71  69  95 CALM      29.88R FOG
PLATTEVILLE    FAIR      70  69  96 E6        29.90F
$$

WIZ056-057-062-063-064-067-068-221200-
SOUTH CENTRAL WISCONSIN

CITY           SKY/WX    TMP DP  RH WIND       PRES   REMARKS
BARABOO/DELLS  CLOUDY    69  67  94 CALM      29.91S FOG
LONE ROCK      CLOUDY    73  68  84 CALM      29.90S HAZE
WATERTOWN      FOG       70  70 100 CALM      29.91F VSB 1
MADISON        CLOUDY    73  71  93 SE3       29.91S FOG
MIDDLETON      CLOUDY    73  73 100 CALM      29.92R
MONROE         FOG       72  72 100 NE3       29.91S VSB 1/4
JANESVILLE     CLOUDY    73  72  94 CALM      29.90S FOG
$$

WIZ051-052-058>065-066-070>072-221200-
SOUTHEAST WISCONSIN

CITY           SKY/WX    TMP DP  RH WIND       PRES   REMARKS
MILWAUKEE      FOG       70  70 100 CALM      29.93F VSB 1/4
WAUKESHA       FOG       68  68 100 CALM      29.93F VSB 1
MILWAUKEE/TIMM FOG       68  66  94 CALM      29.93F VSB 1/2
RACINE         FOG       69  68  96 NE3       29.93S VSB 3/4
BURLINGTON     FOG       69  69  99 CALM      29.91F VSB 1/4
KENOSHA        FOG       70  70 100 CALM      29.91F VSB 1/4
FOND DU LAC    CLOUDY    69  67  93 SE5       29.93S
SHEBOYGAN      FOG       67  67 100 NE3       29.95R VSB 1/4
WEST BEND      CLOUDY    66  64  94 CALM      29.94S FOG
JUNEAU         HAZE      70  46  42 E3        29.93F VSB<1/4
$$

LSZ147-162-221200-
LAKE SUPERIOR

STATION/POSITION TIME  TEMP    WIND        PRES    WAVE
                       AIR SEA DIR/SP/G            HT/PER
                 (UTC) (F)     (DEG/KT/KT) (MB)    (FT/S)
W MID LAKE BUOY  1050   57 59   50/ 14/ 17 1013.7R   2/ 4
DEVILS ISLAND    1100   59      70/ 13/ 15 1013.8R
PORT WING        1000   60      40/ 10/ 14 1013.2
SAXON HARBOR     1000   65        CALM     1012.9R
$$

LMZ867-665-643>646-221200-
LAKE MICHIGAN

STATION/POSITION TIME  TEMP    WIND        PRES    WAVE
                       AIR SEA DIR/SP/G            HT/PER
                 (UTC) (F)     (DEG/KT/KT) (MB)    (FT/S)
N MID LAKE BUOY  1050   65 64  110/  6/  8 1013.9R   1
NORTHPORT PIER   1000   65     100/  2/  4 1013.5R
SISTER BAY       1011   64     130/  6/ 10   N/A
KEWAUNEE LAKESHO 1000   66     160/  4/  5 1012.5R
SHEBOYGAN LAKESH 1100   67 65   40/  2/  2 1014.1R
ATWATER BUOY     1100   69      CALM  /  2 1014.3F
MILWAUKEE LAKESH 1000   69     160/  4/  4   N/A
S MID LAKE BUOY  1050   69 68  170/  2/  2 1013.1S   0
KENOSHA   LAKESH 1100   70      10/  4/  4 1012.5S
$$

TC  - TEMPERATURE IN CELSIUS
VSB - VISIBILITY IN STATUTE MILES
WCI - WIND CHILL INDEX
HX  - HEAT INDEX




USA.gov is the U.S. government's official web portal to all federal, state and local government web resources and services.